GFSFLT2_sfc_wetblb_117.txt.gz
Wetbulb
38.59 40.05 40.95 42.35 44.38 45.78 48.87 50.06 50.25 51.42 53.20 56.44 57.30 57.68 58.07 57.92 58.33 59.07 59.64 60.44 61.40 62.36 63.20 63.35 63.56 62.96 62.60
35.45 36.79 37.59 40.30 40.78 42.40 45.98 48.00 45.76 48.24 51.03 52.34 53.37 55.59 56.33 56.60 56.67 57.14 57.35 57.96 58.80 59.78 60.79 61.51 62.24 62.48 62.44
31.93 35.25 37.44 38.43 38.00 40.60 40.00 40.86 42.62 44.67 49.60 50.94 51.58 52.02 52.59 54.44 55.87 55.77 55.21 55.42 55.78 56.21 57.27 58.47 59.57 60.88 61.95
30.88 31.79 34.22 36.03 37.82 36.80 35.88 38.25 38.23 41.84 45.11 45.78 46.46 47.49 50.57 51.89 52.30 51.46 51.76 53.01 54.58 55.31 55.36 55.37 56.23 57.98 59.51
28.85 29.82 30.40 31.69 32.70 34.75 33.70 34.70 35.52 42.37 37.89 38.43 40.13 42.87 47.05 48.72 49.33 49.79 50.56 51.51 52.27 53.24 54.23 54.65 54.45 55.40 57.37
27.84 27.88 28.52 30.87 31.41 32.15 31.77 30.09 28.54 37.87 33.95 34.09 38.09 40.05 41.84 44.26 47.90 48.99 49.57 50.38 51.01 51.55 52.25 53.18 53.52 53.89 54.92
28.61 27.77 28.57 30.25 31.08 29.48 28.49 29.76 29.44 32.50 33.76 31.45 36.28 37.67 42.16 44.73 46.39 46.59 48.09 49.10 49.93 50.22 50.61 51.27 52.17 52.90 53.71
30.32 30.48 30.51 31.39 31.43 33.26 30.49 29.11 31.07 32.71 33.69 29.27 33.75 33.04 37.02 40.96 43.53 45.47 46.21 47.34 48.56 49.68 50.28 50.81 50.82 51.91 52.90
35.29 36.05 36.36 36.61 36.02 33.05 27.28 26.05 25.92 27.56 30.63 31.26 31.55 33.05 35.04 37.15 40.62 43.32 44.44 45.84 47.53 49.06 49.96 50.48 50.61 51.02 51.37
28.76 30.64 32.50 31.50 35.06 30.95 29.00 24.43 25.89 24.13 30.62 29.38 29.61 29.41 27.88 33.92 36.14 39.06 40.16 42.79 45.00 48.07 49.25 49.71 49.56 51.01 49.87
27.41 27.65 28.57 28.92 29.19 29.06 28.39 25.42 21.44 22.76 29.52 29.09 26.60 27.04 26.87 28.18 31.29 33.72 36.64 37.31 39.99 44.45 48.57 48.82 48.39 47.64 45.51
25.41 25.38 25.73 26.40 26.83 26.64 27.29 26.41 25.48 26.71 29.14 29.06 27.14 23.49 24.74 25.07 25.84 29.65 31.63 34.60 37.50 39.75 42.56 46.98 47.75 47.27 46.82
25.02 25.78 25.93 26.36 27.52 25.12 26.72 27.24 26.21 27.44 29.32 25.90 23.58 26.54 23.89 26.23 26.52 28.42 29.41 31.46 34.31 36.68 38.37 40.49 42.25 41.00 39.98
24.76 25.68 26.36 22.86 26.17 26.35 23.48 25.18 21.15 24.41 26.41 27.07 25.43 26.04 27.22 29.24 29.38 28.06 30.57 29.36 33.51 35.12 36.00 37.61 40.29 40.47 40.77
24.59 24.77 25.25 25.51 25.48 25.17 24.03 22.01 20.28 19.27 21.70 22.64 25.39 27.36 29.07 30.85 29.46 30.15 30.03 30.96 32.64 34.12 35.55 35.16 35.77 38.79 39.98
24.83 24.22 23.49 23.24 23.74 24.86 20.73 21.95 20.50 20.09 19.56 21.62 21.49 21.74 22.27 30.47 34.05 30.17 30.98 31.77 32.56 33.60 35.13 35.16 35.46 36.68 39.12
20.41 20.25 22.09 22.75 24.59 22.77 21.98 21.58 21.32 16.63 19.09 20.59 22.23 23.57 21.73 21.29 23.18 35.45 30.64 31.08 31.47 32.45 34.32 34.73 35.33 35.31 37.85

GFSFLT2_sfc_wetblb_120.txt.gz
Wetbulb
35.32 35.66 35.58 37.17 39.72 40.25 43.72 42.24 43.02 44.42 46.54 51.09 49.81 50.51 52.55 55.19 57.83 58.75 59.66 60.56 61.13 62.08 62.82 63.13 63.74 63.79 63.43
32.04 32.16 32.39 35.79 37.29 37.34 40.63 41.44 40.94 42.11 44.40 47.75 46.63 46.49 47.25 51.83 53.12 57.13 57.84 58.58 59.07 59.75 60.92 61.76 62.23 62.62 63.13
30.20 31.80 31.90 33.26 33.99 35.67 36.24 36.99 38.42 39.07 43.91 42.51 42.65 42.93 43.80 48.38 49.88 50.89 52.39 56.59 56.84 57.14 58.16 59.21 60.19 61.26 62.25
29.33 30.12 30.32 31.68 32.72 31.64 31.34 34.17 34.02 36.14 39.64 38.26 39.54 40.16 41.91 43.93 44.17 47.58 48.79 50.41 52.90 55.59 55.64 55.53 55.99 57.78 59.91
30.26 29.75 28.97 28.86 28.89 30.97 30.58 31.72 32.07 36.00 33.71 34.31 35.69 36.70 38.74 42.24 43.95 45.99 48.07 48.71 50.04 51.46 53.41 54.69 54.26 55.08 56.74
28.56 27.73 27.57 28.08 29.54 29.60 29.47 28.53 27.32 32.28 31.27 31.88 35.57 34.54 37.38 40.11 42.09 41.90 44.58 46.70 48.49 49.09 50.41 51.61 52.70 53.10 54.18
27.42 27.20 27.51 29.10 29.70 29.18 29.99 30.61 28.94 30.83 30.49 28.72 32.91 32.91 36.17 38.54 40.76 43.18 44.44 45.89 46.81 47.58 48.71 49.76 50.51 51.30 52.24
28.77 29.00 29.20 31.48 32.31 32.54 31.66 30.57 28.90 29.12 29.74 26.01 31.26 31.90 33.93 35.56 41.27 42.88 42.36 43.06 44.83 46.51 47.95 48.87 49.13 49.61 50.40
34.61 35.02 35.20 35.01 33.88 30.31 28.15 26.99 25.41 25.75 27.66 30.49 30.54 28.84 30.34 31.58 38.90 37.32 38.48 38.76 40.75 42.49 44.54 47.38 48.39 49.06 49.89
27.83 29.35 30.20 29.49 33.05 29.35 27.63 25.55 25.79 24.03 27.00 24.27 26.17 26.93 25.31 29.94 30.83 32.23 32.86 36.22 37.23 38.56 41.16 45.40 47.65 48.68 49.98
26.29 25.91 26.54 27.10 27.93 28.27 28.20 26.43 25.38 23.80 26.91 24.50 22.11 24.65 26.32 26.08 28.05 29.00 30.65 31.44 33.01 36.10 41.69 42.35 44.83 48.09 46.59
24.50 24.16 24.58 24.97 25.59 25.72 27.08 26.84 26.82 27.49 28.03 26.37 25.85 21.69 22.59 22.67 22.97 26.95 28.77 30.68 32.01 33.22 33.81 39.62 43.27 48.25 47.53
23.84 24.61 24.82 25.13 26.16 25.89 26.53 26.63 26.41 28.06 29.36 25.86 20.31 22.93 18.05 22.98 23.21 24.83 26.96 28.13 30.81 31.55 33.66 35.67 38.16 41.25 39.16
23.49 24.50 25.66 24.17 25.45 26.41 25.12 25.74 24.29 23.96 26.06 26.02 24.13 21.87 22.01 24.63 25.64 25.88 28.15 24.87 28.88 30.80 31.54 33.68 37.35 39.95 39.71
23.28 23.93 24.57 24.39 24.46 24.81 24.53 23.87 21.71 21.14 21.56 22.68 23.43 24.56 24.59 23.67 22.42 25.94 28.20 29.30 30.54 30.38 30.62 31.61 35.15 37.87 39.02
22.46 22.86 21.90 20.46 21.17 22.59 24.28 22.54 21.87 20.94 20.39 17.92 14.42 15.65 15.88 21.40 29.52 26.77 28.06 29.07 29.59 30.62 30.09 31.14 32.09 36.10 38.73
21.68 19.95 19.15 19.45 21.63 21.51 22.52 22.21 21.12 20.37 18.36 13.01 9.17 19.54 18.25 17.20 20.66 31.49 29.16 30.30 30.52 29.81 30.99 31.29 31.88 34.15 37.07

GFSFLT2_sfc_wetblb_126.txt.gz
Wetbulb
38.90 40.11 39.70 39.72 40.03 40.40 40.29 40.32 40.63 40.90 41.36 41.76 42.51 41.57 42.07 42.40 42.93 43.93 45.17 47.60 49.41 50.26 51.74 53.19 56.31 60.75 63.12
36.45 37.31 37.66 39.07 38.90 38.24 38.10 39.08 39.52 39.95 40.67 40.82 41.06 40.95 41.01 41.32 41.67 42.89 43.33 43.88 45.48 46.95 49.27 50.70 52.11 54.35 60.53
34.44 36.83 37.10 38.06 37.29 37.29 37.25 37.95 38.62 39.30 40.08 40.35 40.32 40.41 40.35 40.54 41.10 41.99 42.04 43.03 43.49 45.37 46.88 48.16 49.53 50.98 53.60
34.17 34.30 35.19 36.26 35.79 34.18 33.85 36.50 35.52 37.30 39.05 39.20 39.35 39.18 39.45 40.00 40.54 40.50 39.97 43.79 44.29 45.31 46.50 47.35 48.24 49.21 50.98
32.80 33.31 33.27 33.16 32.36 33.83 33.08 33.79 33.44 37.03 35.89 36.65 37.31 37.29 37.84 39.22 39.77 38.23 38.78 41.26 42.44 42.46 42.94 44.70 45.46 46.64 48.04
32.15 31.43 32.23 32.73 33.35 32.83 31.74 30.91 28.57 36.59 34.35 33.44 36.22 35.11 36.69 38.20 38.08 37.70 38.30 40.77 39.92 39.92 40.31 41.42 42.67 44.35 46.05
31.26 31.75 31.59 32.95 32.65 31.64 31.78 31.66 31.08 33.51 33.53 31.37 34.38 33.63 36.28 36.99 37.19 37.42 37.89 38.01 37.71 37.80 38.58 39.29 39.91 41.97 44.81
33.74 33.57 33.85 34.36 34.07 33.32 32.62 31.92 32.97 33.33 33.74 28.79 32.56 32.30 35.24 35.64 36.92 36.91 36.94 36.71 36.55 36.72 37.52 37.77 38.50 40.53 43.07
35.46 35.31 35.30 35.43 35.02 33.84 30.81 29.84 27.63 29.34 32.15 30.17 31.43 31.74 33.35 34.07 35.52 36.12 35.97 35.72 35.83 36.05 36.32 36.83 38.15 38.82 40.11
33.10 33.68 34.01 33.56 33.63 32.58 31.14 28.32 27.98 27.23 30.92 28.61 28.95 29.41 27.15 32.51 33.82 34.65 34.51 34.91 35.16 35.30 35.73 36.44 37.43 38.47 38.18
31.60 31.19 30.99 31.11 31.59 32.06 31.72 30.28 28.29 27.24 30.95 30.39 28.85 27.88 28.44 28.88 31.32 33.40 33.77 34.02 34.24 34.53 35.28 35.60 37.21 36.77 35.89
28.52 28.03 28.41 29.13 29.93 31.28 31.04 30.72 30.64 27.99 29.34 28.95 26.84 26.96 26.43 26.25 27.30 30.92 32.48 33.49 33.63 33.12 33.79 35.77 35.70 36.72 37.46
26.86 27.56 29.25 30.41 30.09 28.95 29.64 29.86 29.90 29.42 29.29 30.02 29.87 28.67 28.18 26.59 26.94 28.47 28.83 30.66 32.64 33.23 33.15 33.45 34.71 35.28 34.49
27.30 28.20 28.91 28.46 27.58 28.42 27.40 27.42 26.59 26.69 29.26 30.26 30.64 29.53 26.74 28.26 28.41 27.64 29.65 27.42 31.06 32.21 32.42 33.49 33.53 35.69 36.10
27.01 26.68 26.28 26.56 25.99 27.32 26.54 25.66 23.88 24.01 25.40 28.71 30.43 29.88 29.01 26.80 25.35 27.10 28.47 28.97 30.37 31.26 31.56 31.10 33.57 34.93 35.63
26.38 26.45 25.16 25.31 25.04 25.75 25.91 24.52 23.77 24.26 24.54 26.32 25.84 26.02 27.03 29.14 30.80 27.88 28.59 28.55 30.19 30.87 30.22 28.84 30.66 34.50 35.70
26.05 25.95 25.70 25.58 24.48 24.48 24.23 23.53 22.92 23.88 24.84 25.40 24.77 24.15 20.89 20.52 27.86 31.69 27.98 28.69 28.54 28.12 29.46 30.23 30.08 31.97 34.65

GFSFLT2_sfc_wetblb_129.txt.gz
Wetbulb
38.07 39.19 38.37 38.41 39.20 40.01 39.96 38.82 39.21 41.27 41.70 41.90 42.13 42.31 42.16 42.31 42.42 42.78 43.63 44.26 44.90 45.94 46.91 49.09 51.40 52.50 53.09
35.38 36.38 36.72 37.76 37.88 37.42 37.82 38.51 38.10 39.97 40.91 41.18 41.42 41.54 41.56 41.54 41.61 41.95 42.44 42.24 42.94 46.03 45.88 46.72 48.60 50.27 52.01
33.53 36.11 36.21 36.81 35.93 36.56 35.99 36.51 37.88 39.58 39.07 39.96 41.05 40.93 40.75 40.85 40.99 41.25 41.33 40.16 41.15 43.35 43.67 44.72 46.00 47.38 49.08
32.96 32.94 34.42 35.81 35.48 33.49 32.68 34.84 34.73 35.66 37.65 39.11 39.55 39.32 39.66 40.05 39.99 40.13 39.75 39.43 40.17 41.95 42.08 42.28 42.44 43.69 45.19
32.10 32.53 32.35 32.60 31.94 33.00 31.80 32.53 32.25 34.29 34.28 35.10 34.51 34.83 36.03 37.82 38.20 39.42 39.06 39.18 39.82 40.64 40.09 40.65 40.54 41.40 42.33
30.89 30.09 30.73 31.58 32.41 31.63 30.51 28.86 27.39 34.27 32.29 31.36 33.69 32.70 34.18 35.44 38.14 39.00 38.57 38.84 39.09 38.53 38.73 38.96 39.31 39.82 40.37
30.72 30.74 30.19 31.54 31.42 30.59 30.34 30.69 29.73 31.76 31.32 28.63 31.96 30.73 33.32 34.93 37.75 37.88 37.93 38.21 38.18 37.92 37.82 38.14 38.39 38.67 39.11
33.27 32.91 33.05 33.57 32.99 32.65 32.14 31.72 31.58 31.61 32.28 26.33 30.37 28.83 32.15 32.77 35.76 36.49 37.51 37.42 37.35 37.17 37.30 37.37 37.36 37.80 38.64
36.34 36.21 36.05 36.51 35.73 32.68 29.43 27.92 26.01 27.26 30.39 28.12 28.17 28.28 28.87 28.93 32.19 36.11 36.58 36.36 36.46 36.64 36.66 36.60 36.89 37.53 36.22
32.32 33.20 33.91 33.05 34.44 31.51 29.41 26.08 25.92 25.40 28.79 27.20 26.95 26.75 24.22 28.09 29.34 30.58 31.65 34.89 35.61 35.65 35.85 35.97 36.28 33.47 34.25
30.35 30.46 30.38 29.87 30.05 30.54 30.32 28.62 26.06 25.11 28.86 28.53 26.03 25.40 25.15 24.40 26.69 28.62 29.62 30.80 30.85 31.92 34.45 34.91 35.76 35.48 31.52
28.11 27.28 27.23 27.91 28.73 29.22 29.45 28.92 28.52 27.25 28.47 28.12 24.96 24.70 23.57 23.06 23.04 26.28 27.96 29.43 29.92 29.46 29.90 33.51 34.54 35.57 36.58
26.13 26.78 27.87 28.68 28.61 28.02 28.32 28.27 28.18 28.51 29.46 28.55 27.32 26.29 25.45 24.73 23.52 24.18 25.57 27.07 28.99 27.83 28.52 29.61 30.00 31.41 30.59
26.70 27.20 28.22 27.84 26.77 28.00 26.59 26.42 26.23 25.81 27.82 27.61 26.82 26.75 24.35 25.63 25.72 24.42 25.00 23.73 26.90 27.93 27.81 28.57 30.30 31.76 31.77
27.34 27.03 26.68 26.67 26.48 27.44 26.38 25.34 23.45 22.95 22.72 25.26 27.14 27.55 27.37 26.11 23.75 24.61 24.22 24.71 26.82 26.99 26.90 26.15 27.29 28.49 30.20
26.84 26.14 25.19 24.89 24.94 25.63 25.88 24.74 23.16 23.06 23.14 23.91 24.61 23.51 22.36 23.96 28.50 24.24 25.63 25.62 26.87 27.01 26.75 24.50 24.80 27.84 30.72
25.55 25.46 25.41 25.13 24.32 24.21 24.35 24.08 22.83 22.44 22.56 23.81 23.31 21.89 18.73 16.43 22.17 29.42 23.74 24.71 25.50 24.96 25.37 24.99 24.15 26.23 29.15

GFSFLT2_sfc_wetblb_132.txt.gz
Wetbulb
33.38 34.23 34.03 34.16 35.50 35.97 37.12 35.58 35.65 40.46 41.45 41.80 41.71 42.13 42.44 42.49 42.53 42.77 43.09 43.63 43.76 43.93 45.32 46.84 48.00 48.83 50.35
31.23 32.44 33.18 33.68 33.50 33.10 35.83 36.88 34.65 38.71 40.59 40.57 40.68 41.54 41.80 41.60 41.50 41.74 41.77 42.34 41.60 41.91 42.80 44.21 45.01 45.71 46.72
30.64 31.99 31.98 32.77 32.57 32.75 32.91 32.26 35.70 38.30 38.32 38.75 39.90 40.48 40.62 40.26 40.65 40.83 40.53 41.26 40.82 40.88 41.50 42.66 42.65 43.23 44.44
29.78 30.91 31.18 32.25 31.61 30.12 29.29 30.74 31.10 34.00 35.75 37.45 38.92 38.71 38.61 38.87 39.34 38.70 39.22 40.19 40.33 40.54 40.96 40.97 40.39 40.99 41.85
28.15 29.53 29.81 29.37 28.51 29.63 28.17 28.37 29.41 31.24 30.79 31.20 32.31 32.37 32.56 35.86 36.33 37.80 38.69 39.64 39.64 39.81 40.25 39.97 39.71 39.89 40.53
29.25 28.75 29.20 27.75 28.46 27.58 27.69 26.82 25.15 31.04 29.06 29.89 31.08 30.27 30.91 31.84 36.52 37.48 38.51 38.74 38.39 39.05 39.38 39.27 38.98 39.06 39.50
30.64 30.31 29.67 29.82 30.58 29.91 29.64 27.67 28.05 30.68 30.24 27.69 29.96 28.11 30.15 32.51 35.60 37.12 36.82 36.83 38.15 38.51 38.29 38.21 38.27 38.45 38.42
31.41 30.46 30.88 32.80 32.80 32.32 31.16 31.19 30.94 30.13 29.01 24.76 28.25 26.84 29.28 29.38 34.44 35.30 35.70 37.14 37.54 37.37 37.08 37.47 37.40 37.38 37.56
36.41 37.03 37.33 37.04 36.01 32.56 26.48 24.89 24.94 25.42 26.68 25.84 25.59 25.69 26.96 27.60 29.52 34.10 34.80 34.96 35.28 35.61 36.25 36.61 36.27 36.55 34.72
30.42 31.62 33.10 30.79 34.93 29.73 26.42 23.66 23.96 24.42 26.26 24.52 25.21 25.02 23.15 24.95 25.82 27.80 28.56 32.26 33.45 34.27 35.23 35.10 35.52 31.83 32.65
30.65 27.90 27.81 27.26 26.91 27.26 27.67 24.82 23.00 23.28 26.85 27.66 23.73 23.92 23.53 22.63 24.35 25.60 26.49 27.31 28.13 29.74 33.17 34.15 34.53 34.03 30.29
26.62 26.05 24.71 24.70 25.35 25.81 27.03 26.45 26.17 26.07 27.12 25.88 23.15 23.03 22.94 21.75 21.27 24.58 25.87 26.13 27.06 27.01 27.83 31.53 33.69 34.02 34.23
25.00 24.35 24.21 24.53 26.24 25.06 25.98 26.76 26.62 27.06 28.51 27.60 25.62 26.12 25.42 22.42 21.31 22.29 23.54 25.22 25.41 25.39 25.69 26.79 27.77 28.28 27.21
24.98 25.32 26.05 26.03 26.77 26.55 25.48 25.35 23.76 24.38 27.01 27.25 25.80 24.91 22.32 23.69 24.19 23.45 24.31 21.58 24.76 25.01 25.47 26.66 28.03 28.58 27.99
27.02 26.81 26.96 26.83 26.49 27.36 26.67 25.77 23.05 21.83 22.05 23.46 24.94 25.49 25.56 24.78 22.47 23.08 22.01 22.30 24.15 24.80 25.82 25.71 26.79 27.34 27.50
26.66 26.36 25.36 24.92 24.65 25.34 25.61 24.36 22.23 21.87 21.50 22.06 21.10 20.40 21.75 23.38 27.25 21.95 22.55 23.04 24.38 25.42 26.16 24.92 23.92 25.91 27.24
25.71 25.04 25.08 24.97 24.81 23.28 22.50 22.86 22.33 21.81 22.04 21.74 18.75 19.83 17.61 15.41 20.94 28.08 21.69 22.07 22.69 23.16 23.50 22.70 22.27 24.56 26.34